Stations météo

réclame
Mon MeteoGroup
Spangdahlem, Allemagne (10607): Température de l'air & dewpoint: 11.01.2021 07:00:00 - 17.01.2021 07:00:00 (CET)Spangdahlem, Allemagne (10607): Vitesse du vent: 11.01.2021 07:00:00 - 17.01.2021 07:00:00 (CET)Spangdahlem, Allemagne (10607): Direction du vent: 11.01.2021 07:00:00 - 17.01.2021 07:00:00 (CET)Spangdahlem, Allemagne (10607): reduced air pressure: 11.01.2021 07:00:00 - 17.01.2021 07:00:00 (CET)Spangdahlem, Allemagne (10607): visibility: 11.01.2021 07:00:00 - 17.01.2021 07:00:00 (CET)Spangdahlem, Allemagne (10607): Quantités de précipitations: 11.01.2021 07:00:00 - 17.01.2021 07:00:00 (CET)
Date & Time tt [°C] td [°C] ff [km/h] ff [knt] dd ppp [hPa] vv [km] rr [mm]
17.01.2021 07:00:00 -3,3 -4,3 5 3 W 1016,1 8 -
17.01.2021 06:00:00 -3,4 -4,5 0 0 N 1016,1 8 0,0
17.01.2021 05:00:00 -3,4 -4,5 5 3 W 1016,4 8 -
17.01.2021 04:00:00 -3,4 -4,7 0 0 N 1015,9 9 0,0
17.01.2021 03:00:00 -3,5 -4,9 0 0 N 1016,2 10 -
17.01.2021 02:00:00 -3,5 -5,1 0 0 N 1015,9 10 0,0
17.01.2021 01:00:00 -3,5 -4,9 5 3 SW 1016,2 6 0,0
17.01.2021 00:00:00 -3,0 -5,0 0 0 N 1017,3 3,0 0,0
16.01.2021 23:00:00 -3,6 -5,3 5 3 S 1018,1 9 0,0
16.01.2021 22:00:00 -4,0 -5,0 9 5 S 1018,5 8 0,0
16.01.2021 21:00:00 -3,8 -5,8 13 7 S 1019,5 6 0,0
16.01.2021 20:00:00 -3,5 -5,7 15 8 SSW 1020,2 6 0,0
16.01.2021 19:00:00 -2,8 -5,0 13 7 SSW 1020,5 6 0,0
16.01.2021 18:00:00 -2,6 -5,9 15 8 SSW 1021,0 10 -
16.01.2021 17:00:00 -2,4 -6,4 15 8 SSW 1022,1 10 -
16.01.2021 16:00:00 -2,0 -6,9 9 5 S 1023,1 10 -
16.01.2021 15:00:00 -1,5 -7,6 15 8 S 1023,6 10 -
16.01.2021 14:00:00 -1,5 -7,8 11 6 SSW 1024,3 10 -
16.01.2021 13:00:00 -1,5 -7,4 9 5 S 1025,3 10 -
16.01.2021 12:00:00 -1,4 -6,7 9 5 S 1026,3 10 -
16.01.2021 11:00:00 -1,7 -6,8 8 4 SSW 1027,2 10 -
16.01.2021 10:00:00 -2,0 -5,7 0 0 N 1027,2 10 -
16.01.2021 09:00:00 -2,2 -5,2 0 0 N 1027,5 10 -
16.01.2021 08:00:00 -2,3 -5,3 0 0 N 1027,7 10 -
16.01.2021 07:00:00 -2,3 -5,5 0 0 N 1027,9 10 -
16.01.2021 06:00:00 -1,9 -5,9 0 0 N 1028,2 10 -
16.01.2021 05:00:00 -2,1 -6,3 0 0 N 1028,6 10 -
16.01.2021 04:00:00 -1,7 -6,5 0 0 N 1028,7 10 -
16.01.2021 03:00:00 -1,8 -7,1 0 0 N 1028,7 10 0,0
16.01.2021 02:00:00 -1,6 -7,7 0 0 N 1028,7 10 -
16.01.2021 01:00:00 -1,5 -6,1 0 0 N 1028,5 10 -
16.01.2021 00:00:00 -1,3 -6,1 0 0 N 1029,1 10 0,0
15.01.2021 23:00:00 -1,2 -5,6 0 0 N 1029,1 10 0,0
15.01.2021 22:00:00 -1,2 -5,2 0 0 N 1029,1 10 -
15.01.2021 21:00:00 -1,2 -5,2 0 0 N 1028,9 10 -
15.01.2021 20:00:00 -1,0 -5,8 0 0 N 1028,6 10 -
15.01.2021 19:00:00 -1,1 -5,5 0 0 N 1028,2 10 -
15.01.2021 18:00:00 -1,8 -6,4 0 0 N 1027,9 10 -
15.01.2021 17:00:00 -1,1 -6,1 8 4 N 1027,5 10 -
15.01.2021 16:00:00 -0,1 -5,7 5 3 NNE 1026,7 10 -
15.01.2021 15:00:00 0,7 -6,2 9 5 N 1026,0 10 -
15.01.2021 14:00:00 0,6 -6,9 9 5 N 1025,6 10 -
15.01.2021 13:00:00 0,0 -7,3 8 4 N 1026,0 10 -
15.01.2021 12:00:00 -0,4 -6,6 13 7 N 1025,6 10 -
15.01.2021 11:00:00 -1,3 -5,9 5 3 NNE 1025,3 10 -
15.01.2021 10:00:00 -1,9 -6,5 11 6 NNE 1024,3 10 -
15.01.2021 09:00:00 -2,6 -7,1 13 7 N 1023,4 10 -
15.01.2021 08:00:00 -2,7 -7,1 16 9 NNE 1022,4 10 -
15.01.2021 07:00:00 -2,8 -7,0 18 10 NNE 1021,7 10 -
15.01.2021 06:00:00 -2,9 -6,9 21 11 NNE 1020,7 10 -
15.01.2021 05:00:00 -2,7 -6,7 21 11 NNE 1020,3 10 -
15.01.2021 04:00:00 -2,6 -6,4 21 11 NE 1019,7 10 -
15.01.2021 03:00:00 -2,2 -6,2 21 11 NE 1018,8 10 -
15.01.2021 02:00:00 -2,2 -5,7 24 13 NE 1018,1 10 -
15.01.2021 01:00:00 -1,6 -5,3 21 11 NE 1017,8 10 -
15.01.2021 00:00:00 -1,4 -4,4 21 11 ENE 1016,9 10 -
14.01.2021 23:00:00 -1,1 -4,1 15 8 ENE 1016,8 10 -
14.01.2021 22:00:00 -1,0 -4,0 13 7 ENE 1016,8 10 -
14.01.2021 21:00:00 -1,0 -4,0 11 6 ENE 1016,4 10 0,0
14.01.2021 20:00:00 -1,0 -4,0 11 6 ENE 1016,4 10 0,0
14.01.2021 19:00:00 -0,7 -3,2 9 5 ENE 1016,8 10 0,0
14.01.2021 18:00:00 -0,5 -2,7 9 5 ENE 1016,9 10 -
14.01.2021 17:00:00 -0,4 -2,1 0 0 N 1017,3 10 -
14.01.2021 16:00:00 -0,2 -2,1 0 0 N 1017,3 10 -
14.01.2021 15:00:00 -0,1 -1,7 0 0 N 1017,6 10 -
14.01.2021 14:00:00 -0,1 -1,4 0 0 N 1017,8 10 0,0
14.01.2021 13:00:00 0,0 -1,4 0 0 N 1018,5 10 -
14.01.2021 12:00:00 0,2 -2,7 0 0 N 1018,8 10 -
14.01.2021 11:00:00 -0,2 -2,6 0 0 N 1019,1 10 -
14.01.2021 10:00:00 -0,6 -1,9 0 0 N 1018,6 10 -
14.01.2021 09:00:00 -0,6 -1,9 0 0 N 1017,9 10 -
14.01.2021 08:00:00 -0,4 -2,6 0 0 N 1017,8 10 0,0
14.01.2021 07:00:00 -0,1 -1,4 0 0 N 1017,4 10 0,0
14.01.2021 06:00:00 0,2 -0,2 0 0 N 1016,8 5 0,3
14.01.2021 05:00:00 0,3 -0,3 0 0 N 1016,8 5 0,3
14.01.2021 04:00:00 0,9 -0,3 5 3 SW 1016,1 6 0,0
14.01.2021 03:00:00 0,9 -0,6 5 3 SSW 1015,7 10 0,0
14.01.2021 02:00:00 1,5 -0,9 0 0 N 1015,6 10 -
14.01.2021 01:00:00 1,6 -1,0 5 3 W 1015,6 10 -
14.01.2021 00:00:00 1,6 -1,1 9 5 W 1015,2 10 -
13.01.2021 23:00:00 1,7 -0,7 0 0 N 1015,0 10 -
13.01.2021 22:00:00 1,7 1,6 0 0 N 1014,4 9 -
13.01.2021 21:00:00 1,7 1,4 9 5 WSW 1014,0 3,2 -
13.01.2021 20:00:00 1,7 1,4 9 5 WSW 1014,4 8 -
13.01.2021 19:00:00 1,5 0,9 9 5 WSW 1014,4 6 -
13.01.2021 18:00:00 1,3 0,3 13 7 SW 1014,5 6 -
13.01.2021 17:00:00 1,4 -1,2 11 6 WSW 1014,9 10 -
13.01.2021 16:00:00 1,9 -1,9 16 9 SW 1015,4 10 -
13.01.2021 15:00:00 1,9 -2,1 11 6 WSW 1016,2 10 -
13.01.2021 14:00:00 2,2 -1,4 21 11 SW 1016,9 10 -
13.01.2021 13:00:00 1,8 -1,6 21 11 WSW 1017,6 10 -
13.01.2021 12:00:00 1,0 -1,1 13 7 SW 1018,3 10 -
13.01.2021 11:00:00 0,4 -0,9 15 8 SW 1018,6 10 0,0
13.01.2021 10:00:00 0,3 -0,9 13 7 SW 1019,0 10 -
13.01.2021 09:00:00 -0,2 -0,9 8 4 SW 1018,6 10 -
13.01.2021 08:00:00 -0,3 -0,7 9 5 SW 1018,3 10 0,0
13.01.2021 07:00:00 -0,4 -1,1 9 5 SW 1018,1 10 0,0
13.01.2021 06:00:00 -0,8 -1,8 0 0 N 1018,6 10 -
13.01.2021 05:00:00 -0,5 -1,5 5 3 SW 1018,8 10 -
13.01.2021 04:00:00 -1,1 -1,9 8 4 WSW 1018,1 10 -
13.01.2021 03:00:00 -1,4 -2,4 8 4 WSW 1017,8 10 -
13.01.2021 02:00:00 -1,3 -2,1 5 3 WSW 1017,8 10 -
13.01.2021 01:00:00 -1,2 -2,3 5 3 WSW 1017,4 10 -
13.01.2021 00:00:00 -0,5 -1,9 0 0 N 1017,1 10 0,0
12.01.2021 23:00:00 -0,1 -1,9 8 4 WSW 1016,4 10 -
12.01.2021 22:00:00 -0,2 -1,8 9 5 WSW 1015,4 10 -
12.01.2021 21:00:00 0,7 -1,7 8 4 WSW 1015,2 10 -
12.01.2021 20:00:00 0,8 -1,4 8 4 W 1014,0 10 -
12.01.2021 19:00:00 2,1 -1,0 0 0 N 1013,0 10 -
12.01.2021 18:00:00 2,3 0,2 0 0 N 1011,6 10 -
12.01.2021 17:00:00 3,0 1,0 0 0 N 1010,1 10 -
12.01.2021 16:00:00 3,7 3,6 9 5 W 1009,4 10 0,5
12.01.2021 15:00:00 3,7 3,6 13 7 W 1008,7 10 0,3
12.01.2021 14:00:00 3,4 3,1 16 9 WSW 1008,1 10 0,5
12.01.2021 13:00:00 2,8 2,2 18 10 SW 1008,1 10 0,5
12.01.2021 12:00:00 2,3 1,6 18 10 SW 1008,6 10 0,5
12.01.2021 11:00:00 1,7 1,0 16 9 SW 1008,9 10 0,8
12.01.2021 10:00:00 1,0 0,3 16 9 SW 1009,1 10 1,0
12.01.2021 09:00:00 0,6 -0,1 18 10 SW 1009,4 10 0,5
12.01.2021 08:00:00 0,5 -0,2 16 9 SW 1009,7 10 0,8
12.01.2021 07:00:00 0,7 0,0 16 9 SW 1010,1 10 1,3
12.01.2021 06:00:00 0,7 0,0 16 9 SW 1011,1 10 1,0
12.01.2021 05:00:00 0,5 -0,2 18 10 SW 1011,8 9 0,3
12.01.2021 04:00:00 0,7 0,0 28 15 SW 1012,7 10 0,3
12.01.2021 03:00:00 0,6 -0,3 22 12 SW 1013,3 9 0,0
12.01.2021 02:00:00 0,3 -0,7 22 12 SW 1014,2 8 -
12.01.2021 01:00:00 0,2 -1,1 22 12 SW 1015,2 9 -
12.01.2021 00:00:00 -0,2 -1,8 18 10 SW 1016,1 10 -
11.01.2021 23:00:00 0,0 -1,9 22 12 SW 1016,9 10 -
11.01.2021 22:00:00 -0,2 -2,6 16 9 SW 1018,0 10 -
11.01.2021 21:00:00 -0,3 -2,8 16 9 SW 1018,5 10 -
11.01.2021 20:00:00 -0,4 -3,3 15 8 SW 1019,2 10 -
11.01.2021 19:00:00 -0,5 -3,5 18 10 SSW 1019,5 10 0,0
11.01.2021 18:00:00 -0,3 -3,7 15 8 SSW 1019,5 10 0,0
11.01.2021 17:00:00 -0,2 -3,9 16 9 SSW 1019,8 10 -
11.01.2021 16:00:00 0,0 -3,9 13 7 SSW 1020,5 10 -
11.01.2021 15:00:00 0,1 -4,5 13 7 SSW 1020,9 10 -
11.01.2021 14:00:00 -0,8 -4,7 13 7 SSW 1021,2 10 -
11.01.2021 13:00:00 -1,0 -5,4 13 7 WSW 1022,6 10 -
11.01.2021 12:00:00 -2,1 -4,9 13 7 SW 1023,3 10 -
11.01.2021 11:00:00 -3,6 -4,6 8 4 WSW 1023,8 10 -
11.01.2021 10:00:00 -4,9 -6,2 0 0 N 1023,3 10 -
11.01.2021 09:00:00 -5,8 -7,2 0 0 N 1023,6 10 -
11.01.2021 08:00:00 -6,2 -7,7 0 0 N 1023,3 10 -
11.01.2021 07:00:00 -6,7 -8,4 0 0 N 1023,1 10 -

tt = Température de l'air
td = dewpoint
ff = Vitesse du vent
dd = Direction du vent
ppp = reduced air pressure
vv = visibility
rr = Quantités de précipitations

stations d'obs. à proximité